When you browse on this site, cookies collect data to enhance your experience and personalize the content and advertising you see.
Visit our Privacy Policy to learn more. By continuing to use the site, you agree to this use of cookies and data.
  • In Austria
  • List of Countries
  • For 7 days
  • Water Temperature
  • Satellite Maps
  • Weather Map
  • News
  • Weather Widgets
  • user-avatar
    Login

    Hourly Weather Povchin

    Today, 16 July, Tuesday

    Time Temperature Precipitation Wind Pressure Humidity
    00:00 +13°C° 0 mm 1 mps 747 mmHg 91%
    01:00 +13°C° 0 mm 1 mps 747 mmHg 92%
    02:00 +12°C° 0 mm 1 mps 747 mmHg 91%
    03:00 +12°C° 0 mm 1 mps 747 mmHg 91%
    04:00 +12°C° 0 mm 1 mps 747 mmHg 91%
    05:00 +12°C° 0 mm 1 mps 746 mmHg 91%
    06:00 +14°C° 0 mm 1 mps 746 mmHg 84%
    07:00 +16°C° 0 mm 1 mps 747 mmHg 78%
    08:00 +18°C° 0 mm 2 mps 747 mmHg 72%
    09:00 +20°C° 0.2 mm 2 mps 746 mmHg 67%
    10:00 +21°C° 0.2 mm 2 mps 746 mmHg 62%
    11:00 +23°C° 0.2 mm 2 mps 746 mmHg 57%
    12:00 +24°C° 0.1 mm 2 mps 745 mmHg 56%
    13:00 +24°C° 0.1 mm 3 mps 745 mmHg 54%
    14:00 +24°C° 0.1 mm 3 mps 745 mmHg 53%
    15:00 +24°C° 0.3 mm 3 mps 744 mmHg 59%
    16:00 +23°C° 0.3 mm 2 mps 744 mmHg 64%
    17:00 +23°C° 0.3 mm 2 mps 744 mmHg 70%
    18:00 +20°C° 0.4 mm 2 mps 744 mmHg 76%
    19:00 +19°C° 0.4 mm 2 mps 744 mmHg 82%
    20:00 +17°C° 0.4 mm 2 mps 744 mmHg 87%
    21:00 +16°C° 0.2 mm 2 mps 744 mmHg 90%
    22:00 +14°C° 0.2 mm 3 mps 744 mmHg 92%
    23:00 +14°C° 0.2 mm 3 mps 744 mmHg 95%

    Tomorrow, 17 July, Wednesday

    Time Temperature Precipitation Wind Pressure Humidity
    00:00 +13°C° 0 mm 3 mps 744 mmHg 95%
    01:00 +12°C° 0 mm 3 mps 744 mmHg 95%
    02:00 +11°C° 0 mm 3 mps 744 mmHg 95%
    03:00 +11°C° 0 mm 3 mps 744 mmHg 95%
    04:00 +10°C° 0 mm 3 mps 744 mmHg 96%
    05:00 +10°C° 0 mm 3 mps 744 mmHg 97%
    06:00 +11°C° 0 mm 3 mps 744 mmHg 95%
    07:00 +12°C° 0 mm 3 mps 744 mmHg 92%
    08:00 +14°C° 0 mm 3 mps 744 mmHg 90%
    09:00 +16°C° 0.3 mm 3 mps 744 mmHg 84%
    10:00 +17°C° 0.3 mm 3 mps 744 mmHg 78%
    11:00 +18°C° 0.3 mm 4 mps 743 mmHg 73%
    12:00 +18°C° 0.4 mm 4 mps 743 mmHg 72%
    13:00 +18°C° 0.4 mm 4 mps 743 mmHg 71%
    14:00 +18°C° 0.4 mm 4 mps 743 mmHg 70%
    15:00 +18°C° 0.2 mm 4 mps 743 mmHg 70%
    16:00 +18°C° 0.2 mm 3 mps 743 mmHg 69%
    17:00 +19°C° 0.2 mm 3 mps 742 mmHg 69%
    18:00 +17°C° 0.4 mm 2 mps 742 mmHg 76%
    19:00 +16°C° 0.4 mm 2 mps 742 mmHg 83%
    20:00 +14°C° 0.4 mm 1 mps 742 mmHg 91%
    21:00 +14°C° 0 mm 1 mps 743 mmHg 92%
    22:00 +13°C° 0 mm 2 mps 743 mmHg 93%
    23:00 +12°C° 0 mm 2 mps 743 mmHg 95%

    Day after tomorrow, 18 July, Thursday

    Time Temperature Precipitation Wind Pressure Humidity
    00:00 +12°C° 0 mm 2 mps 743 mmHg 95%
    01:00 +12°C° 0 mm 2 mps 743 mmHg 96%
    02:00 +10°C° 0 mm 2 mps 743 mmHg 97%
    03:00 +10°C° 0 mm 2 mps 743 mmHg 97%
    04:00 +10°C° 0 mm 3 mps 744 mmHg 98%
    05:00 +10°C° 0 mm 3 mps 744 mmHg 98%
    06:00 +11°C° 0 mm 3 mps 744 mmHg 97%
    07:00 +12°C° 0 mm 4 mps 744 mmHg 95%
    08:00 +13°C° 0 mm 4 mps 744 mmHg 93%
    09:00 +14°C° 0 mm 4 mps 744 mmHg 90%
    10:00 +14°C° 0 mm 4 mps 745 mmHg 88%
    11:00 +15°C° 0 mm 4 mps 745 mmHg 85%
    12:00 +17°C° 0.3 mm 4 mps 745 mmHg 82%
    13:00 +18°C° 0.3 mm 4 mps 745 mmHg 79%
    14:00 +19°C° 0.3 mm 4 mps 745 mmHg 76%
    15:00 +19°C° 0.6 mm 4 mps 745 mmHg 79%
    16:00 +19°C° 0.6 mm 4 mps 745 mmHg 81%
    17:00 +20°C° 0.6 mm 3 mps 745 mmHg 84%
    18:00 +19°C° 0.4 mm 3 mps 745 mmHg 87%
    19:00 +18°C° 0.4 mm 2 mps 745 mmHg 90%
    20:00 +17°C° 0.4 mm 2 mps 745 mmHg 94%
    21:00 +16°C° 0 mm 2 mps 746 mmHg 95%
    22:00 +16°C° 0 mm 2 mps 746 mmHg 96%
    23:00 +15°C° 0 mm 2 mps 746 mmHg 97%

    19 July, Friday

    Time Temperature Precipitation Wind Pressure Humidity
    00:00 +14°C° 0 mm 2 mps 746 mmHg 97%
    01:00 +14°C° 0 mm 2 mps 747 mmHg 97%
    02:00 +14°C° 0 mm 2 mps 747 mmHg 97%
    03:00 +13°C° 0 mm 2 mps 747 mmHg 97%
    04:00 +13°C° 0 mm 2 mps 747 mmHg 97%
    05:00 +13°C° 0 mm 2 mps 747 mmHg 96%
    06:00 +13°C° 0 mm 3 mps 748 mmHg 92%
    07:00 +16°C° 0 mm 3 mps 748 mmHg 88%
    08:00 +18°C° 0 mm 3 mps 748 mmHg 83%
    09:00 +19°C° 0 mm 3 mps 748 mmHg 74%
    10:00 +21°C° 0 mm 3 mps 749 mmHg 66%
    11:00 +23°C° 0 mm 4 mps 749 mmHg 57%
    12:00 +23°C° 0.1 mm 4 mps 749 mmHg 56%
    13:00 +23°C° 0.1 mm 4 mps 749 mmHg 56%
    14:00 +25°C° 0.1 mm 3 mps 749 mmHg 55%
    15:00 +25°C° 0.2 mm 3 mps 749 mmHg 58%
    16:00 +24°C° 0.2 mm 3 mps 749 mmHg 60%
    17:00 +24°C° 0.2 mm 3 mps 749 mmHg 63%
    18:00 +21°C° 0.1 mm 3 mps 749 mmHg 70%
    19:00 +20°C° 0.1 mm 2 mps 749 mmHg 78%
    20:00 +19°C° 0.1 mm 1 mps 749 mmHg 85%
    21:00 +18°C° 0 mm 1 mps 749 mmHg 87%
    22:00 +16°C° 0 mm 1 mps 750 mmHg 88%
    23:00 +16°C° 0 mm 1 mps 750 mmHg 90%

    20 July, Saturday

    Time Temperature Precipitation Wind Pressure Humidity
    00:00 +15°C° 0 mm 1 mps 750 mmHg 90%
    01:00 +15°C° 0 mm 1 mps 750 mmHg 91%
    02:00 +14°C° 0 mm 1 mps 750 mmHg 91%
    03:00 +14°C° 0 mm 1 mps 750 mmHg 91%
    04:00 +14°C° 0 mm 1 mps 751 mmHg 91%
    05:00 +14°C° 0 mm 1 mps 751 mmHg 91%
    06:00 +16°C° 0 mm 1 mps 751 mmHg 84%
    07:00 +19°C° 0 mm 1 mps 751 mmHg 78%
    08:00 +21°C° 0 mm 1 mps 751 mmHg 71%
    09:00 +23°C° 0 mm 1 mps 751 mmHg 65%
    10:00 +24°C° 0 mm 1 mps 751 mmHg 59%
    11:00 +25°C° 0 mm 2 mps 752 mmHg 53%
    12:00 +26°C° 0 mm 2 mps 751 mmHg 51%
    13:00 +26°C° 0 mm 2 mps 751 mmHg 48%
    14:00 +27°C° 0 mm 2 mps 751 mmHg 46%
    15:00 +26°C° 0 mm 2 mps 751 mmHg 47%
    16:00 +26°C° 0 mm 1 mps 751 mmHg 49%
    17:00 +26°C° 0 mm 1 mps 751 mmHg 50%
    18:00 +24°C° 0 mm 1 mps 751 mmHg 57%
    19:00 +22°C° 0 mm 1 mps 751 mmHg 64%
    20:00 +20°C° 0 mm 1 mps 751 mmHg 70%
    21:00 +19°C° 0 mm 1 mps 752 mmHg 74%
    22:00 +19°C° 0 mm 1 mps 752 mmHg 78%
    23:00 +18°C° 0 mm 1 mps 752 mmHg 82%

    21 July, Sunday

    Time Temperature Precipitation Wind Pressure Humidity
    00:00 +16°C° 0 mm 1 mps 752 mmHg 83%
    01:00 +16°C° 0 mm 1 mps 752 mmHg 84%
    02:00 +15°C° 0 mm 1 mps 752 mmHg 85%
    03:00 +15°C° 0 mm 1 mps 752 mmHg 84%
    04:00 +15°C° 0 mm 1 mps 753 mmHg 84%
    05:00 +15°C° 0 mm 1 mps 753 mmHg 84%
    06:00 +18°C° 0 mm 1 mps 753 mmHg 78%
    07:00 +20°C° 0 mm 1 mps 753 mmHg 71%
    08:00 +22°C° 0 mm 1 mps 753 mmHg 65%
    09:00 +24°C° 0 mm 1 mps 753 mmHg 61%
    10:00 +26°C° 0 mm 1 mps 753 mmHg 56%
    11:00 +27°C° 0 mm 1 mps 754 mmHg 52%
    12:00 +27°C° 0 mm 1 mps 753 mmHg 50%
    13:00 +28°C° 0 mm 1 mps 753 mmHg 48%
    14:00 +28°C° 0 mm 1 mps 753 mmHg 46%
    15:00 +28°C° 0.1 mm 2 mps 753 mmHg 50%
    16:00 +27°C° 0.1 mm 2 mps 753 mmHg 55%
    17:00 +27°C° 0.1 mm 2 mps 753 mmHg 59%
    18:00 +25°C° 0.1 mm 2 mps 753 mmHg 67%
    19:00 +23°C° 0.1 mm 2 mps 753 mmHg 75%
    20:00 +20°C° 0.1 mm 2 mps 753 mmHg 82%
    21:00 +20°C° 0 mm 1 mps 753 mmHg 83%
    22:00 +19°C° 0 mm 1 mps 754 mmHg 84%
    23:00 +19°C° 0 mm 1 mps 754 mmHg 84%
    Show more